Tracking 32963 objects as of 21-Jan-2026
HD Live streaming from Space Station
objects crossing your sky now

ATLAS 2 CENTAUR R/B(2)

Track ATLAS 2 CENTAUR R/B(2) now!


NORAD ID: 23648
Int'l Code: 1995-038C
Perigee: 35,411.2 km
Apogee: 35,623.6 km
Inclination: 13.8 °
Period: 1,422.0 minutes
Semi major axis: 41888 km
RCS: Unknown
Launch date: July 31, 1995
Source: United States (US)
Launch site: AIR FORCE EASTERN TEST RANGE (AFETR)

Note: This is a ROCKET BODY
Your satellite tracking list
Your tracking list is empty




NASA's NSSDC Master Catalog

Two Line Element Set (TLE):
1 23648U 95038C   26020.05217068  .00000036  00000-0  00000-0 0  9996
2 23648  13.7996 346.4216 0025359 295.4460  64.3391  1.01265704 24581
Source of the keplerian elements: McCants